User: anonymous   Login
Location: Sabalos
(43.2860°N, 0.1414°E)
Time: 10:22:21
(UTC+00:00)
Language:

OAO 2 Rocket - Orbit

View from above orbital plane
View from above orbital plane
View from above satellite
View from above satellite

Ground track
Ground track

The orbit data is extracted from the following two-line orbital elements,

1  3598U 68110B   20272.05154282  .00000085  00000-0  23914-4 0  9997
2  3598  34.9948  46.3996 0049864 234.6745 124.9279 14.54484776741100
Epoch (UTC): 28 September 2020 01:14:13
Eccentricity: 0.0049864
inclination: 34.9948°
perigee height: 675 km
apogee height: 746 km
right ascension of ascending node: 46.3996°
argument of perigee: 234.6745°
revolutions per day: 14.54484776
mean anomaly at epoch: 124.9279°
orbit number at epoch: 74110

The dashed part of the orbit path shows where the satellite is in the earth's shadow,  

DLR